GW3962 Weather Reports


Display with metric or nautical units.
time (UTC)temp
F
wind
direction
speed
MPH
gust
MPH
rain 1hr
in
rain 24hr
in
rain mn
in
humidity
%
barometer
mb
20260505111718 69 185 9.0 10.0 0.00 0.00 0.00 93 1007.7
20260505111214 69 216 13.0 16.0 0.00 0.00 0.00 93 1007.4
20260505110709 69 194 11.0 15.0 0.00 0.00 0.00 92 1007.2
20260505110207 69 205 10.0 13.0 0.00 0.00 0.00 92 1007.4
20260505102143 69 217 10.0 11.0 0.00 0.00 0.00 91 1007.7
20260505101642 69 215 6.0 8.0 0.00 0.00 0.00 91 1007.7
20260505101137 69 196 9.0 10.0 0.00 0.00 0.00 91 1007.5
20260505100633 69 226 7.0 9.0 0.00 0.00 0.00 91 1007.8
20260505100131 69 210 11.0 14.0 0.00 0.00 0.00 91 1007.8
20260505095627 69 223 10.0 11.0 0.00 0.00 0.00 91 1007.7
20260505095124 69 195 9.0 11.0 0.00 0.00 0.00 91 1007.7
20260505094620 69 203 10.0 13.0 0.00 0.00 0.00 91 1007.7
20260505094116 69 198 11.0 13.0 0.00 0.00 0.00 91 1007.9
20260505093613 69 220 10.0 13.0 0.00 0.00 0.00 92 1007.8
20260505093110 69 213 10.0 11.0 0.00 0.00 0.00 92 1007.7
20260505092607 69 185 11.0 11.0 0.00 0.00 0.00 92 1007.9
20260505092106 69 215 11.0 13.0 0.00 0.00 0.00 92 1007.9
20260505091602 69 215 6.0 7.0 0.00 0.00 0.00 92 1007.7
20260505091101 69 215 12.0 13.0 0.00 0.00 0.00 91 1007.7
20260505090558 69 240 10.0 14.0 0.00 0.00 0.00 91 1007.9
20260505090056 69 217 8.0 11.0 0.00 0.00 0.00 91 1007.9
20260505085553 69 245 12.0 15.0 0.00 0.00 0.00 91 1008.1
20260505085051 69 254 8.0 8.0 0.00 0.00 0.00 91 1007.9
20260505084549 69 226 11.0 14.0 0.00 0.00 0.00 91 1008.0
20260505084047 69 202 12.0 16.0 0.00 0.00 0.00 91 1008.0
20260505083544 69 215 13.0 16.0 0.00 0.00 0.00 91 1008.1
20260505083040 69 169 13.0 17.0 0.00 0.00 0.00 91 1008.1
20260505082536 69 244 13.0 14.0 0.00 0.00 0.00 90 1008.1
20260505082033 69 253 10.0 13.0 0.00 0.00 0.00 90 1008.2
20260505081530 69 235 10.0 11.0 0.00 0.00 0.00 90 1008.2
20260505081027 69 212 11.0 13.0 0.00 0.00 0.00 90 1008.4
20260505080523 69 219 15.0 16.0 0.00 0.00 0.00 90 1008.4
20260505080020 69 180 14.0 16.0 0.00 0.00 0.00 90 1008.4
20260505075516 69 230 10.0 13.0 0.00 0.00 0.00 90 1008.4
20260505075013 69 227 14.0 18.0 0.00 0.00 0.00 90 1008.3
20260505074510 69 206 14.0 16.0 0.00 0.00 0.00 90 1008.5
20260505074007 69 227 10.0 13.0 0.00 0.00 0.00 90 1008.8
20260505073504 69 237 13.0 15.0 0.00 0.00 0.00 90 1008.7
20260505073003 69 208 12.0 15.0 0.00 0.00 0.00 90 1008.6
20260505072458 69 202 14.0 17.0 0.00 0.00 0.00 90 1008.7
20260505071954 69 206 9.0 11.0 0.00 0.00 0.00 90 1008.6
20260505071450 69 192 11.0 13.0 0.00 0.00 0.00 90 1008.9
20260505070948 69 226 13.0 16.0 0.00 0.00 0.00 90 1009.0
20260505070445 69 215 12.0 15.0 0.00 0.00 0.00 89 1009.0
20260505065940 69 233 13.0 17.0 0.00 0.00 0.00 89 1009.1
20260505065437 70 206 13.0 16.0 0.00 0.00 0.00 89 1009.0
20260505064934 70 221 13.0 15.0 0.00 0.00 0.00 89 1009.3
20260505064431 70 175 14.0 17.0 0.00 0.00 0.00 89 1009.2
20260505063929 70 224 14.0 21.0 0.00 0.00 0.00 89 1009.2
20260505063425 70 226 17.0 22.0 0.00 0.00 0.00 89 1009.3
20260505062922 70 221 14.0 16.0 0.00 0.00 0.00 89 1009.3
20260505062419 70 211 11.0 14.0 0.00 0.00 0.00 89 1009.3
20260505061916 70 176 13.0 14.0 0.00 0.00 0.00 89 1009.4
20260505061414 70 219 11.0 13.0 0.00 0.00 0.00 89 1009.3
20260505060911 70 203 10.0 13.0 0.00 0.00 0.00 88 1009.5
20260505060408 70 233 14.0 16.0 0.00 0.00 0.00 88 1009.5
20260505055904 70 205 9.0 10.0 0.00 0.00 0.00 88 1009.6
20260505055400 70 223 11.0 14.0 0.00 0.00 0.00 88 1009.6
20260505054857 70 218 15.0 18.0 0.00 0.00 0.00 88 1009.5
20260505054355 70 184 18.0 22.0 0.00 0.00 0.00 88 1009.3
20260505053853 70 214 9.0 10.0 0.00 0.00 0.00 88 1009.8
20260505053350 70 221 16.0 22.0 0.00 0.00 0.00 88 1009.6
20260505052846 71 194 14.0 16.0 0.00 0.00 0.00 87 1009.5
20260505052343 71 201 12.0 16.0 0.00 0.00 0.00 87 1009.9
20260505051840 71 249 14.0 15.0 0.00 0.00 0.00 87 1009.6
20260505051337 71 218 13.0 16.0 0.00 0.00 0.00 87 1009.6
20260505050836 71 223 13.0 16.0 0.00 0.00 0.00 87 1009.9
20260505050334 71 216 12.0 16.0 0.00 0.00 0.00 87 1009.5
20260505041301 72 242 10.0 11.0 0.00 0.00 0.00 85 1009.5
20260505040758 72 205 10.0 14.0 0.00 0.00 0.00 85 1009.5
20260505040256 72 182 13.0 18.0 0.00 0.00 0.00 84 1009.6
20260505035752 72 222 16.0 18.0 0.00 0.00 0.00 84 1009.5
20260505035248 72 203 10.0 11.0 0.00 0.00 0.00 84 1009.6
20260505034745 72 235 11.0 13.0 0.00 0.00 0.00 84 1009.9
20260505034242 72 230 12.0 16.0 0.00 0.00 0.00 83 1009.8
20260505033739 72 214 10.0 10.0 0.00 0.00 0.00 83 1009.5
20260505033236 73 197 9.0 10.0 0.00 0.00 0.00 82 1009.6
20260505032734 73 223 6.0 10.0 0.00 0.00 0.00 82 1009.6
20260505032230 73 208 9.0 15.0 0.00 0.00 0.00 82 1009.5
20260505031728 73 216 11.0 13.0 0.00 0.00 0.00 82 1009.5
20260505031224 73 214 10.0 11.0 0.00 0.00 0.00 82 1009.5
20260505030721 73 215 11.0 11.0 0.00 0.00 0.00 81 1009.6
20260505030217 73 222 9.0 10.0 0.00 0.00 0.00 81 1009.6
20260505025713 73 174 10.0 13.0 0.00 0.00 0.00 80 1009.6
20260505025211 73 193 9.0 11.0 0.00 0.00 0.00 79 1009.4
20260505024709 73 235 9.0 9.0 0.00 0.00 0.00 79 1009.5
20260505024205 74 202 10.0 10.0 0.00 0.00 0.00 78 1009.8
20260505023703 74 218 8.0 9.0 0.00 0.00 0.00 77 1009.6
20260505023200 74 221 8.0 10.0 0.00 0.00 0.00 76 1009.4
20260505022657 74 216 8.0 10.0 0.00 0.00 0.00 76 1009.6
20260505022154 75 190 11.0 14.0 0.00 0.00 0.00 75 1009.5
20260505021651 75 204 6.0 8.0 0.00 0.00 0.00 75 1009.4
20260505021148 75 177 10.0 13.0 0.00 0.00 0.00 75 1009.4
20260505020643 75 201 10.0 11.0 0.00 0.00 0.00 74 1009.5
20260505020139 75 230 12.0 13.0 0.00 0.00 0.00 74 1009.2
20260505015637 75 214 14.0 17.0 0.00 0.00 0.00 74 1009.2
20260505015133 75 174 10.0 14.0 0.00 0.00 0.00 73 1009.3
20260505014630 75 192 8.0 10.0 0.00 0.00 0.00 73 1009.5
20260505014127 75 213 11.0 13.0 0.00 0.00 0.00 73 1009.2
20260505013625 75 226 8.0 9.0 0.00 0.00 0.00 72 1009.5
20260505013122 75 223 9.0 11.0 0.00 0.00 0.00 71 1009.4
20260505012620 76 193 8.0 9.0 0.00 0.00 0.00 71 1009.4
20260505012116 76 192 10.0 13.0 0.00 0.00 0.00 70 1009.3
20260505011612 76 206 10.0 13.0 0.00 0.00 0.00 70 1009.2
20260505011110 76 221 12.0 13.0 0.00 0.00 0.00 69 1009.6
20260505010605 76 217 11.0 13.0 0.00 0.00 0.00 69 1009.1
20260505005558 77 230 12.0 14.0 0.00 0.00 0.00 68 1009.2
20260505005055 77 185 11.0 14.0 0.00 0.00 0.00 67 1009.0
20260505004552 77 206 12.0 14.0 0.00 0.00 0.00 67 1009.3
20260505004049 77 218 11.0 15.0 0.00 0.00 0.00 67 1009.1
20260505003546 77 211 9.0 9.0 0.00 0.00 0.00 66 1009.0
20260505003044 77 186 12.0 15.0 0.00 0.00 0.00 66 1009.2
20260505002543 78 230 7.0 8.0 0.00 0.00 0.00 66 1009.1
20260505002038 78 208 11.0 14.0 0.00 0.00 0.00 66 1008.9
20260505001534 78 193 11.0 14.0 0.00 0.00 0.00 66 1009.1
20260505001031 78 242 11.0 14.0 0.00 0.00 0.00 65 1009.1
20260505000529 78 214 14.0 20.0 0.00 0.00 0.00 65 1008.9
20260505000026 78 196 10.0 14.0 0.00 0.00 0.00 65 1009.1
20260504235523 78 180 11.0 14.0 0.00 0.00 0.00 64 1009.0
20260504235019 78 226 9.0 13.0 0.00 0.00 0.00 65 1009.4
20260504234517 78 182 20.0 26.0 0.00 0.00 0.00 64 1009.2
20260504234014 79 172 14.0 15.0 0.00 0.00 0.00 63 1009.4
20260504233509 79 212 16.0 20.0 0.00 0.00 0.00 63 1009.4
20260504233006 79 192 17.0 18.0 0.00 0.00 0.00 64 1009.3
20260504232503 79 194 17.0 20.0 0.00 0.00 0.00 64 1009.3
20260504232001 79 212 13.0 14.0 0.00 0.00 0.00 64 1009.4
20260504231456 79 230 13.0 17.0 0.00 0.00 0.00 63 1009.8
20260504230953 79 183 18.0 21.0 0.00 0.00 0.00 63 1009.5
20260504230450 79 210 14.0 20.0 0.00 0.00 0.00 63 1009.8
20260504225949 79 213 14.0 18.0 0.00 0.00 0.00 62 1009.8
20260504225445 80 208 19.0 22.0 0.00 0.00 0.00 63 1009.8
20260504224942 80 158 10.0 15.0 0.00 0.00 0.00 62 1009.8
20260504224439 80 193 11.0 15.0 0.00 0.00 0.00 63 1010.0
20260504223936 80 164 18.0 21.0 0.00 0.00 0.00 62 1010.0
20260504223432 80 183 13.0 17.0 0.00 0.00 0.00 61 1010.0
20260504222927 80 241 13.0 16.0 0.00 0.00 0.00 62 1010.0
20260504222425 80 215 15.0 20.0 0.00 0.00 0.00 62 1010.0
20260504221923 80 214 17.0 18.0 0.00 0.00 0.00 61 1010.0
20260504221419 81 220 11.0 14.0 0.00 0.00 0.00 61 1009.9
20260504220917 81 240 9.0 13.0 0.00 0.00 0.00 61 1010.0
20260504220413 81 206 15.0 18.0 0.00 0.00 0.00 60 1009.9
20260504215910 81 239 13.0 16.0 0.00 0.00 0.00 60 1010.1
20260504215407 81 237 15.0 22.0 0.00 0.00 0.00 60 1010.2
20260504214903 81 196 15.0 20.0 0.00 0.00 0.00 60 1010.0
20260504214400 81 199 12.0 14.0 0.00 0.00 0.00 60 1010.2
20260504213857 82 204 16.0 17.0 0.00 0.00 0.00 58 1010.2
20260504213352 81 230 10.0 13.0 0.00 0.00 0.00 60 1010.3
20260504212850 81 202 13.0 17.0 0.00 0.00 0.00 60 1010.3
20260504212346 80 210 11.0 13.0 0.00 0.00 0.00 61 1010.7
20260504211844 80 196 16.0 21.0 0.00 0.00 0.00 60 1010.6
20260504211340 80 210 14.0 16.0 0.00 0.00 0.00 60 1010.9
20260504210838 80 201 8.0 10.0 0.00 0.00 0.00 61 1010.9
20260504210334 80 228 15.0 20.0 0.00 0.00 0.00 61 1010.8
20260504205831 79 224 17.0 18.0 0.00 0.00 0.00 61 1011.2
20260504205329 80 210 11.0 14.0 0.00 0.00 0.00 62 1011.2
20260504204827 79 207 12.0 16.0 0.00 0.00 0.00 63 1011.0
20260504204326 78 182 10.0 11.0 0.00 0.00 0.00 64 1011.3
20260504203824 78 190 11.0 16.0 0.00 0.00 0.00 63 1011.4
20260504203321 78 228 11.0 13.0 0.00 0.00 0.00 63 1011.4
20260504202816 78 187 13.0 15.0 0.00 0.00 0.00 63 1011.5
20260504202314 78 183 13.0 17.0 0.00 0.00 0.00 64 1011.7
20260504201811 78 202 15.0 17.0 0.00 0.00 0.00 63 1011.8
20260504201308 80 222 13.0 17.0 0.00 0.00 0.00 62 1011.7
20260504200806 79 195 9.0 13.0 0.00 0.00 0.00 62 1012.1
20260504200302 78 233 10.0 14.0 0.00 0.00 0.00 63 1012.0
20260504195758 79 209 13.0 18.0 0.00 0.00 0.00 62 1011.9
20260504195254 78 179 13.0 15.0 0.00 0.00 0.00 62 1012.2
20260504194751 78 258 10.0 13.0 0.00 0.00 0.00 63 1012.4
20260504194247 78 257 8.0 10.0 0.00 0.00 0.00 63 1012.3
20260504193743 78 238 12.0 16.0 0.00 0.00 0.00 63 1012.4
20260504193241 78 168 7.0 8.0 0.00 0.00 0.00 64 1012.4
20260504192739 78 197 7.0 8.0 0.00 0.00 0.00 64 1012.6
20260504192237 77 183 14.0 21.0 0.00 0.00 0.00 64 1012.6
20260504191736 77 214 13.0 17.0 0.00 0.00 0.00 65 1012.6
20260504191232 77 185 14.0 17.0 0.00 0.00 0.00 64 1012.5
20260504190727 77 202 12.0 16.0 0.00 0.00 0.00 65 1013.1
20260504190224 77 236 9.0 11.0 0.00 0.00 0.00 65 1013.1
20260504185720 76 225 11.0 14.0 0.00 0.00 0.00 66 1013.0
20260504185218 76 194 16.0 20.0 0.00 0.00 0.00 67 1013.1
20260504184713 76 178 14.0 21.0 0.00 0.00 0.00 66 1012.9
20260504184209 76 225 10.0 13.0 0.00 0.00 0.00 67 1013.4
20260504183705 77 277 13.0 18.0 0.00 0.00 0.00 66 1013.2
20260504183203 76 218 10.0 13.0 0.00 0.00 0.00 66 1013.4
20260504182701 75 183 12.0 14.0 0.00 0.00 0.00 67 1013.4
20260504182158 76 230 8.0 9.0 0.00 0.00 0.00 66 1013.7
20260504181655 75 192 14.0 16.0 0.00 0.00 0.00 67 1013.9
20260504181153 74 227 7.0 8.0 0.00 0.00 0.00 70 1014.0
20260504180652 74 225 13.0 17.0 0.00 0.00 0.00 69 1014.1
20260504180150 74 236 9.0 11.0 0.00 0.00 0.00 70 1013.9
20260504175647 74 199 10.0 11.0 0.00 0.00 0.00 70 1013.8
20260504175143 73 210 9.0 13.0 0.00 0.00 0.00 71 1013.8
20260504174642 73 216 12.0 14.0 0.00 0.00 0.00 70 1014.1
20260504174138 72 192 7.0 9.0 0.00 0.00 0.00 73 1013.9
20260504173635 73 239 13.0 18.0 0.00 0.00 0.00 72 1014.2
20260504173132 73 176 12.0 16.0 0.00 0.00 0.00 72 1014.4
20260504172629 73 215 8.0 13.0 0.00 0.00 0.00 71 1014.5
20260504172125 72 247 11.0 15.0 0.00 0.00 0.00 71 1014.7
20260504171622 72 221 9.0 13.0 0.00 0.00 0.00 72 1014.5
20260504171119 71 240 12.0 15.0 0.00 0.00 0.00 73 1014.8
20260504170615 71 179 12.0 18.0 0.00 0.00 0.00 73 1015.0
20260504170113 71 205 16.0 22.0 0.00 0.00 0.00 74 1015.1
20260504150958 68 240 17.0 23.0 0.00 0.00 0.00 76 1015.5
20260504150455 68 203 9.0 11.0 0.00 0.00 0.00 77 1015.2
20260504140916 66 226 9.0 11.0 0.00 0.00 0.00 79 1015.2
20260504140412 65 220 10.0 13.0 0.00 0.00 0.00 80 1015.4
20260504130337 62 210 9.0 10.0 0.00 0.00 0.00 83 1015.2
20260504120300 60 232 7.0 8.0 0.00 0.00 0.00 86 1014.7